FW6932 Weather Reports


time (UTC)temp
C
wind
direction
speed
KPH
gust
KPH
rain 1hr
cm
rain 24hr
cm
rain mn
cm
humidity
%
barometer
mb
20220525123223 18 109 0.0 1.6 0.00 0.00 0.00 76 1017.1
20220525122231 18 89 3.2 8.0 0.00 0.00 0.00 76 1017.2
20220525121254 18 80 1.6 3.2 0.00 0.00 0.00 76 1017.3
20220525120214 18 99 3.2 3.2 0.00 0.00 0.00 76 1017.2
20220525115030 18 109 8.0 9.7 0.00 0.00 0.00 75 1017.4
20220525114055 18 66 0.0 1.6 0.00 0.00 0.00 74 1017.4
20220525113014 18 92 4.8 4.8 0.00 0.00 0.00 75 1017.3
20220525111831 18 68 0.0 0.0 0.00 0.00 0.00 73 1017.3
20220525110854 17 68 0.0 0.0 0.00 0.00 0.00 76 1017.3
20220525105815 17 68 0.0 1.6 0.00 0.00 0.00 75 1017.4
20220525104631 17 50 3.2 3.2 0.00 0.00 0.00 75 1017.1
20220525103654 17 45 0.0 0.0 0.00 0.00 0.00 74 1017.1
20220525102614 17 90 1.6 1.6 0.00 0.00 0.00 74 1017.2
20220525101430 17 124 4.8 4.8 0.00 0.00 0.00 74 1017.3
20220525100454 17 65 0.0 0.0 0.00 0.00 0.00 74 1017.3
20220525095413 18 85 4.8 8.0 0.00 0.00 0.00 73 1017.1
20220525094215 17 92 6.4 8.0 0.00 0.00 0.00 73 1017.1
20220525093241 17 117 3.2 3.2 0.00 0.00 0.00 75 1017.1
20220525092302 17 100 1.6 3.2 0.00 0.00 0.00 76 1017.4
20220525091223 17 87 1.6 3.2 0.00 0.00 0.00 82 1017.2
20220525090247 16 106 3.2 3.2 0.00 0.00 0.00 83 1017.2
20220525085255 16 89 4.8 4.8 0.00 0.00 0.00 83 1017.1
20220525084214 16 56 1.6 3.2 0.00 0.00 0.00 84 1016.8
20220525083234 16 75 0.0 0.0 0.00 0.00 0.00 84 1017.1
20220525082302 16 75 0.0 0.0 0.00 0.00 0.00 84 1017.2
20220525081222 16 108 0.0 0.0 0.00 0.00 0.00 84 1017.2
20220525080245 16 107 0.0 0.0 0.00 0.00 0.00 85 1016.8
20220525075254 16 108 0.0 0.0 0.00 0.00 0.00 83 1016.8
20220525074219 16 109 3.2 3.2 0.00 0.00 0.00 83 1016.5
20220525073031 16 116 6.4 8.0 0.00 0.00 0.00 82 1016.4
20220525072054 16 113 4.8 8.0 0.00 0.00 0.00 83 1016.2
20220525071014 16 122 0.0 0.0 0.00 0.00 0.00 83 1016.1
20220525065835 16 120 8.0 9.7 0.00 0.00 0.00 81 1016.0
20220525064855 16 136 4.8 4.8 0.00 0.00 0.00 79 1015.9
20220525063814 16 73 0.0 0.0 0.00 0.00 0.00 79 1015.9
20220525062631 15 73 0.0 0.0 0.00 0.00 0.00 84 1015.9
20220525061655 15 108 0.0 0.0 0.00 0.00 0.00 86 1016.2
20220525060614 15 108 0.0 0.0 0.00 0.00 0.00 86 1016.0
20220525055431 15 108 0.0 0.0 0.00 0.00 0.00 85 1015.8
20220525054454 15 108 0.0 0.0 0.00 0.00 0.00 86 1015.8
20220525053414 15 108 0.0 0.0 0.00 0.00 0.00 86 1015.8
20220525052437 15 108 0.0 0.0 0.00 0.00 0.00 86 1015.8
20220525051503 15 108 0.0 0.0 0.00 0.00 0.00 86 1015.7
20220525050423 15 108 0.0 0.0 0.00 0.00 0.00 86 1015.7
20220525045447 15 108 0.0 0.0 0.00 0.00 0.00 87 1015.7
20220525044455 15 108 0.0 0.0 0.00 0.00 0.00 87 1015.8
20220525043415 14 108 0.0 0.0 0.00 0.00 0.00 87 1015.7
20220525042231 14 108 0.0 0.0 0.00 0.00 0.00 87 1015.5
20220525041254 14 108 0.0 0.0 0.00 0.00 0.00 85 1015.6
20220525040214 14 107 0.0 0.0 0.00 0.00 0.00 85 1015.3
20220525035030 14 110 0.0 0.0 0.00 0.00 0.00 87 1015.5
20220525034036 13 340 0.0 0.0 0.00 0.00 0.00 87 1015.7
20220525033107 13 268 0.0 0.0 0.00 0.00 0.00 88 1015.5
20220525032022 13 285 0.0 0.0 0.00 0.00 0.00 86 1015.7
20220525031035 13 329 0.0 0.0 0.00 0.00 0.00 87 1015.4
20220525030054 13 115 0.0 0.0 0.00 0.00 0.00 87 1015.4
20220525025014 13 288 0.0 0.0 0.00 0.00 0.00 87 1015.3
20220525023815 13 288 0.0 0.0 0.00 0.00 0.00 87 1015.1
20220525022630 13 246 0.0 0.0 0.00 0.00 0.00 86 1015.3
20220525021658 13 231 0.0 0.0 0.00 0.00 0.00 85 1015.4
20220525020615 13 351 0.0 0.0 0.00 0.00 0.00 85 1015.3
20220525015431 13 269 0.0 0.0 0.00 0.00 0.00 86 1015.5
20220525014456 13 347 0.0 0.0 0.00 0.00 0.00 86 1015.4
20220525013413 13 344 0.0 0.0 0.00 0.00 0.00 85 1015.6
20220525012230 13 339 0.0 0.0 0.00 0.00 0.00 87 1015.7
20220525011254 13 252 0.0 0.0 0.00 0.00 0.00 86 1015.3
20220525010214 13 337 0.0 0.0 0.00 0.00 0.00 86 1015.4
20220525005030 13 321 0.0 0.0 0.00 0.00 0.00 86 1015.4
20220525004054 13 287 0.0 0.0 0.00 0.00 0.00 86 1015.5
20220525003014 12 242 0.0 0.0 0.00 0.00 0.00 86 1015.5
20220525001829 12 281 0.0 0.0 0.00 0.00 0.00 87 1015.2
20220525000854 12 108 0.0 0.0 0.00 0.00 0.00 87 1015.2
20220524235813 12 108 0.0 0.0 0.00 0.00 0.00 86 1015.2
20220524234615 13 234 0.0 0.0 0.00 0.00 0.00 85 1015.3
20220524233430 12 240 0.0 0.0 0.00 0.00 0.00 86 1015.3
20220524232455 13 338 0.0 0.0 0.00 0.00 0.00 85 1015.4
20220524231437 13 293 0.0 0.0 0.00 0.00 0.00 85 1015.4
20220524230437 13 345 0.0 0.0 0.00 0.00 0.00 85 1015.4
20220524225502 14 345 0.0 0.0 0.00 0.00 0.00 84 1015.5
20220524224423 14 248 0.0 0.0 0.00 0.00 0.00 85 1015.4
20220524223335 15 356 0.0 0.0 0.00 0.00 0.00 84 1015.4
20220524222349 15 278 0.0 0.0 0.00 0.00 0.00 83 1015.6
20220524221359 15 332 0.0 0.0 0.00 0.00 0.00 82 1015.3
20220524220319 15 236 0.0 0.0 0.00 0.00 0.00 80 1015.2
20220524215255 15 155 0.0 0.0 0.00 0.00 0.00 82 1015.4
20220524214215 15 333 0.0 0.0 0.00 0.00 0.00 81 1015.2
20220524213031 15 332 0.0 0.0 0.00 0.00 0.00 82 1015.4
20220524212055 15 332 0.0 0.0 0.00 0.00 0.00 82 1015.2
20220524211016 15 329 0.0 0.0 0.00 0.00 0.00 82 1015.1
20220524205831 15 289 0.0 0.0 0.00 0.00 0.00 82 1015.4
20220524204855 15 293 0.0 0.0 0.00 0.00 0.00 83 1015.0
20220524203815 15 265 0.0 0.0 0.00 0.00 0.00 84 1015.3
20220524202631 15 331 0.0 0.0 0.00 0.00 0.00 82 1015.1
20220524201655 15 331 0.0 0.0 0.00 0.00 0.00 82 1014.9
20220524200615 15 331 0.0 0.0 0.00 0.00 0.00 81 1015.2
20220524195430 15 331 0.0 0.0 0.00 0.00 0.00 82 1015.0
20220524194455 15 331 0.0 0.0 0.00 0.00 0.00 82 1015.1
20220524193415 15 308 0.0 0.0 0.00 0.00 0.00 81 1015.2
20220524192336 15 289 0.0 0.0 0.00 0.00 0.00 82 1015.1
20220524191343 15 330 0.0 0.0 0.00 0.00 0.00 83 1015.1
20220524190407 15 245 0.0 0.0 0.00 0.00 0.00 83 1014.7
20220524185326 16 230 0.0 0.0 0.00 0.00 0.00 82 1014.5
20220524184351 16 119 0.0 0.0 0.00 0.00 0.00 83 1014.7
20220524183401 16 265 0.0 0.0 0.00 0.00 0.00 82 1014.4
20220524182322 16 294 0.0 0.0 0.00 0.00 0.00 82 1014.3
20220524181342 16 279 0.0 0.0 0.00 0.00 0.00 82 1014.3
20220524180405 16 258 0.0 0.0 0.00 0.00 0.00 81 1014.1
20220524175326 17 112 0.0 0.0 0.00 0.00 0.00 79 1014.1
20220524174351 17 112 0.0 0.0 0.00 0.00 0.00 78 1013.8
20220524173359 17 111 0.0 0.0 0.00 0.00 0.00 77 1013.9
20220524172319 18 111 0.0 0.0 0.00 0.00 0.00 74 1013.5
20220524171334 18 111 0.0 0.0 0.00 0.00 0.00 75 1013.7
20220524170237 18 111 0.0 0.0 0.00 0.00 0.00 75 1013.7
20220524165135 18 112 0.0 0.0 0.00 0.00 0.00 73 1013.7
20220524164135 18 206 1.6 3.2 0.00 0.00 0.00 72 1013.6
20220524163038 18 177 0.0 0.0 0.00 0.00 0.00 71 1013.8
20220524162140 18 116 0.0 0.0 0.00 0.00 0.00 71 1013.5
20220524161107 18 108 0.0 0.0 0.00 0.00 0.00 71 1013.8
20220524160139 18 249 4.8 4.8 0.00 0.00 0.00 71 1013.9
20220524155042 18 121 1.6 1.6 0.00 0.00 0.00 70 1013.8
20220524150045 17 153 8.0 11.3 0.00 0.00 0.00 71 1013.6
20220524145142 17 153 8.0 11.3 0.00 0.00 0.00 71 1013.6
20220524142935 17 153 8.0 11.3 0.00 0.00 0.00 71 1013.5
20220524141542 17 153 8.0 11.3 0.00 0.00 0.00 71 1013.7
20220524140640 17 153 8.0 11.3 0.00 0.00 0.00 71 1013.7
20220524135337 17 153 8.0 11.3 0.00 0.00 0.00 71 1013.5
20220524134239 17 153 8.0 11.3 0.00 0.00 0.00 71 1013.5
20220524133037 17 153 8.0 11.3 0.00 0.00 0.00 71 1013.6
20220524132135 17 153 8.0 11.3 0.00 0.00 0.00 71 1013.4
20220524131042 17 153 8.0 11.3 0.00 0.00 0.00 71 1013.2
20220524130033 17 129 3.2 3.2 0.00 0.00 0.00 72 1013.4
20220524124937 17 129 3.2 3.2 0.00 0.00 0.00 72 1013.5